User: anonymous   Login
Location: Unspecified
(0.0000°N, 0.0000°E)
Time: 01:09:24
(UTC+00:00)
Language:

GALILEO 9 (205) - Orbit

View from above orbital plane
View from above orbital plane
View from above satellite
View from above satellite

Ground track
Ground track

The orbit data is extracted from the following two-line orbital elements,

1 40889U 15045A   17291.20010525 -.00000037  00000-0  00000+0 0  9999
2 40889  56.9257 308.7773 0002515 306.8725  53.1438  1.70474817 13078
Epoch (UTC): 18 October 2017 04:48:09
Eccentricity: 0.0002515
inclination: 56.9257°
perigee height: 23214 km
apogee height: 23229 km
right ascension of ascending node: 308.7773°
argument of perigee: 306.8725°
revolutions per day: 1.70474817
mean anomaly at epoch: 53.1438°
orbit number at epoch: 1307

The dashed part of the orbit path shows where the satellite is in the earth's shadow,  

DLR